Weather in Iranshahr

Iran     27°12′50″N   60°30′58″E
temp.,
°C
wind,
m/s
gust,
m/s
humid.,
%
clouds,
%
prec.,
mm/h
press.,
hPa
HPBL,
m
22 september, wed
wed2200:30+30wnw114255 0.3 100324
03:30+29ene11450 0.3 100312
06:30+30sw02391 0.0 1004228
09:30+34s11280 0.0 1004943
12:30+39ssw23160 0.0 10011929
15:30+41wsw4390 0.0 9993184
18:30+37wnw46120 0.0 99970
21:30+33wsw22290 0.0 100224
23 september, thu
thu2300:30+31s12313 0.0 100219
03:30+30nw11360 0.0 100211
06:30+30nw14320 0.0 1005281
09:30+35sw44210 0.0 10051248
12:30+39w43120 0.0 10022172
15:30+40w4490 0.0 10002662
18:30+31sw914391 0.0 1003471
21:30+31ne55332 0.0 1005102
24 september, fri
fri2400:30+30ese22356 0.0 100519
03:30+29nnw22354 0.0 100511
06:30+30n00335 0.0 100752
09:30+35sw21210 0.0 10071052
12:30+39w33133 0.0 10041832
15:30+40w44110 0.0 10021740
18:30+36wnw46135 0.0 100372
21:30+32s12222 0.0 100513
25 september, sat
sat2500:30+31wnw11320 0.0 100511
03:30+29nne11410 0.0 100611
06:30+30n11412 0.0 100888
09:30+35w22270 0.0 10071157
12:30+39wnw34140 0.0 10042033
15:30+40wsw55100 0.0 10012854
18:30+36w47120 0.0 100284
21:30+33nw33150 0.0 100328
26 september, sun
sun2600:30+29w22330 0.0 100325
03:30+28ese01350 0.0 100311
06:30+29ese11360 0.0 100585
09:30+34sse22240 0.0 1005926
12:30+39wsw24105 0.0 10012801
15:30+40wnw3360 0.0 10003271
18:30+35w4470 0.0 100125
21:30+33ene4490 0.0 100227